EW6133 Weather Reports


Display with metric or nautical units.
time (UTC)temp
F
wind
direction
speed
MPH
gust
MPH
rain 1hr
in
rain 24hr
in
rain mn
in
humidity
%
barometer
mb
20260506084215 52 248 1.0 7.0 0.00 0.00 0.00 72 1012.3
20260506083713 51 248 1.0 4.0 0.00 0.00 0.00 72 1012.4
20260506083213 51 267 1.0 5.0 0.00 0.00 0.00 74 1012.4
20260506082713 51 186 1.0 5.0 0.00 0.00 0.00 74 1012.4
20260506082212 51 279 1.0 3.0 0.00 0.00 0.00 74 1012.5
20260506081713 50 159 1.0 4.0 0.00 0.00 0.00 75 1012.4
20260506081215 50 198 1.0 4.0 0.00 0.00 0.00 75 1012.4
20260506080713 49 214 1.0 5.0 0.00 0.00 0.00 78 1012.4
20260506080212 49 210 1.0 5.0 0.00 0.00 0.00 77 1012.4
20260506073204 49 201 1.0 4.0 0.00 0.00 0.00 76 1012.4
20260506072705 49 316 1.0 4.0 0.00 0.00 0.00 77 1012.3
20260506072202 49 264 1.0 4.0 0.00 0.00 0.00 78 1012.3
20260506071734 49 322 0.0 5.0 0.00 0.00 0.00 79 1012.2
20260506071725 49 283 0.0 5.0 0.00 0.00 0.00 79 1012.2
20260506070943 48 279 1.0 4.0 0.00 0.00 0.00 80 1012.2
20260506070202 48 330 1.0 2.0 0.00 0.00 0.00 80 1012.2
20260506062202 46 200 1.0 3.0 0.00 0.00 0.00 83 1012.0
20260506061702 46 280 1.0 3.0 0.00 0.00 0.00 84 1012.0
20260506061204 46 264 1.0 3.0 0.00 0.00 0.00 85 1012.0
20260506060704 45 94 0.0 3.0 0.00 0.00 0.00 86 1011.9
20260506060203 45 235 1.0 3.0 0.00 0.00 0.00 86 1011.9
20260506051205 44 181 1.0 2.0 0.00 0.00 0.00 85 1011.8
20260506050703 44 223 1.0 2.0 0.00 0.00 0.00 85 1011.8
20260506050203 45 223 0.0 2.0 0.00 0.00 0.00 85 1011.8
20260506044705 45 309 0.0 1.0 0.00 0.00 0.00 84 1011.8
20260506044207 45 309 0.0 1.0 0.00 0.00 0.00 84 1011.8
20260506043704 45 309 0.0 1.0 0.00 0.00 0.00 84 1011.8
20260506043203 45 234 0.0 1.0 0.00 0.00 0.00 84 1011.9
20260506042702 45 234 0.0 1.0 0.00 0.00 0.00 84 1011.9
20260506042204 46 234 0.0 2.0 0.00 0.00 0.00 83 1011.9
20260506041701 46 234 0.0 2.0 0.00 0.00 0.00 83 1011.9
20260506041155 46 225 0.0 2.0 0.00 0.00 0.00 84 1011.9
20260506040650 46 214 0.0 2.0 0.00 0.00 0.00 83 1011.9
20260506040143 46 205 0.0 2.0 0.00 0.00 0.00 83 1011.9
20260506035637 46 205 0.0 3.0 0.00 0.00 0.00 83 1011.8
20260506035416 46 202 0.0 3.0 0.00 0.00 0.00 83 1011.9
20260506034639 46 109 0.0 2.0 0.00 0.00 0.00 83 1011.9
20260506034137 46 250 0.0 2.0 0.00 0.00 0.00 83 1011.9
20260506033635 46 250 0.0 1.0 0.00 0.00 0.00 83 1011.9
20260506033134 46 250 0.0 2.0 0.00 0.00 0.00 83 1011.9
20260506032634 46 250 0.0 2.0 0.00 0.00 0.00 83 1011.9
20260506032133 47 131 0.0 3.0 0.00 0.00 0.00 83 1011.9
20260506031634 47 131 0.0 3.0 0.00 0.00 0.00 83 1011.9
20260506031132 47 81 0.0 2.0 0.00 0.00 0.00 83 1011.9
20260506030631 47 244 0.0 3.0 0.00 0.00 0.00 83 1011.9
20260506030131 47 279 0.0 3.0 0.00 0.00 0.00 83 1011.9
20260506025633 47 279 0.0 3.0 0.00 0.00 0.00 83 1012.0
20260506025132 47 40 0.0 3.0 0.00 0.00 0.00 83 1012.0
20260506024630 47 248 0.0 2.0 0.00 0.00 0.00 83 1012.0
20260506024410 47 77 0.0 2.0 0.00 0.00 0.00 83 1012.0
20260506023631 47 245 0.0 2.0 0.00 0.00 0.00 82 1012.0
20260506023129 47 76 1.0 3.0 0.00 0.00 0.00 82 1012.2
20260506022925 47 187 0.0 4.0 0.00 0.00 0.00 82 1012.1
20260506022921 47 254 1.0 4.0 0.00 0.00 0.00 82 1012.2
20260506021617 47 311 0.0 2.0 0.00 0.00 0.00 82 1012.2
20260506021115 48 285 0.0 2.0 0.00 0.00 0.00 82 1012.2
20260506020611 48 304 0.0 2.0 0.00 0.00 0.00 82 1012.1
20260506020112 48 304 0.0 2.0 0.00 0.00 0.00 82 1012.2
20260506015611 48 315 0.0 2.0 0.00 0.00 0.00 82 1012.1
20260506015111 48 321 0.0 2.0 0.00 0.00 0.00 82 1012.2
20260506014608 48 270 0.0 3.0 0.00 0.00 0.00 81 1012.2
20260506014107 48 250 0.0 3.0 0.00 0.00 0.00 81 1012.3
20260506013607 48 262 0.0 2.0 0.00 0.00 0.00 81 1012.2
20260506013106 48 28 0.0 2.0 0.00 0.00 0.00 81 1012.2
20260506012605 48 219 0.0 3.0 0.00 0.00 0.00 81 1012.2
20260506012104 49 219 1.0 3.0 0.00 0.00 0.00 80 1012.2
20260506011603 49 18 0.0 3.0 0.00 0.00 0.00 80 1012.2
20260506011104 49 319 1.0 4.0 0.00 0.00 0.00 80 1012.2
20260506010604 49 254 1.0 4.0 0.00 0.00 0.00 80 1012.2
20260506010106 49 129 0.0 3.0 0.00 0.00 0.00 80 1012.1
20260506005605 49 180 0.0 3.0 0.00 0.00 0.00 80 1012.2
20260506005346 49 12 1.0 3.0 0.00 0.00 0.00 80 1012.2
20260506004604 49 242 1.0 2.0 0.00 0.00 0.00 81 1012.2
20260506004104 49 225 1.0 3.0 0.00 0.00 0.00 81 1012.2
20260506003607 49 183 1.0 3.0 0.00 0.00 0.00 81 1012.2
20260506003106 49 220 0.0 3.0 0.00 0.00 0.00 82 1012.3
20260506002840 49 232 0.0 3.0 0.00 0.00 0.00 82 1012.4
20260506002103 49 336 0.0 3.0 0.00 0.00 0.00 83 1012.4
20260506001603 49 211 0.0 2.0 0.00 0.00 0.00 83 1012.3
20260506001342 50 255 1.0 3.0 0.00 0.00 0.00 83 1012.4
20260506000605 50 234 1.0 3.0 0.00 0.00 0.00 83 1012.3
20260506000105 50 244 0.0 3.0 0.00 0.00 0.00 83 1012.3
20260505235603 50 322 0.0 3.0 0.00 0.00 0.00 83 1012.3
20260505235104 50 300 0.0 2.0 0.00 0.00 0.00 83 1012.3
20260505234602 50 277 0.0 2.0 0.00 0.00 0.00 83 1012.3
20260505234103 50 271 0.0 2.0 0.00 0.00 0.00 83 1012.3
20260505233604 50 342 0.0 1.0 0.00 0.00 0.00 83 1012.3
20260505233103 50 347 0.0 0.0 0.00 0.00 0.00 82 1012.4
20260505232603 50 350 0.0 1.0 0.00 0.00 0.00 82 1012.3
20260505232102 50 217 0.0 1.0 0.00 0.00 0.00 82 1012.4
20260505231604 50 217 0.0 3.0 0.00 0.00 0.00 82 1012.4
20260505231104 50 217 0.0 3.0 0.00 0.00 0.00 81 1012.4
20260505230603 50 217 0.0 2.0 0.00 0.00 0.00 81 1012.5
20260505225605 50 340 0.0 2.0 0.00 0.00 0.00 81 1012.5
20260505225105 51 355 0.0 2.0 0.00 0.00 0.00 80 1012.5
20260505224604 51 0 0.0 2.0 0.00 0.00 0.00 80 1012.5
20260505224102 51 224 0.0 2.0 0.00 0.00 0.00 80 1012.5
20260505223602 51 9 0.0 2.0 0.00 0.00 0.00 79 1012.5
20260505223101 51 355 0.0 3.0 0.00 0.00 0.00 79 1012.5
20260505222623 51 191 1.0 3.0 0.00 0.00 0.00 78 1012.5
20260505222616 51 293 0.0 3.0 0.00 0.00 0.00 79 1012.6
20260505221602 51 288 0.0 3.0 0.00 0.00 0.00 78 1012.5
20260505221343 51 9 0.0 2.0 0.00 0.00 0.00 78 1012.6
20260505220604 51 26 1.0 2.0 0.00 0.00 0.00 78 1012.5
20260505215603 51 26 1.0 3.0 0.00 0.00 0.00 78 1012.5
20260505215105 51 265 0.0 2.0 0.00 0.00 0.00 78 1012.4
20260505214843 51 16 0.0 3.0 0.00 0.00 0.00 77 1012.4
20260505214102 52 288 0.0 3.0 0.00 0.00 0.00 77 1012.4
20260505213602 52 197 1.0 4.0 0.00 0.00 0.00 77 1012.3
20260505213104 52 37 1.0 4.0 0.00 0.00 0.00 76 1012.3
20260505212841 52 14 1.0 2.0 0.00 0.00 0.00 76 1012.3
20260505212343 52 327 1.0 2.0 0.00 0.00 0.00 75 1012.2
20260505211846 53 55 0.0 2.0 0.00 0.00 0.00 74 1012.3
20260505211103 53 92 1.0 3.0 0.00 0.00 0.00 74 1012.3
20260505210602 53 13 1.0 4.0 0.00 0.00 0.00 73 1012.3
20260505210104 53 286 1.0 4.0 0.00 0.00 0.00 73 1012.3
20260505205602 53 290 1.0 5.0 0.00 0.00 0.00 72 1012.2
20260505205102 53 236 1.0 5.0 0.00 0.00 0.00 72 1012.3
20260505204602 54 279 0.0 3.0 0.00 0.00 0.00 72 1012.2
20260505204105 54 216 0.0 3.0 0.00 0.00 0.00 73 1012.2
20260505203601 54 32 1.0 3.0 0.00 0.00 0.00 73 1012.2
20260505203101 54 236 0.0 3.0 0.00 0.00 0.00 75 1012.1
20260505202625 54 351 1.0 6.0 0.00 0.00 0.00 77 1012.0
20260505202617 54 61 0.0 1.0 0.00 0.00 0.00 77 1012.0
20260505201603 55 350 1.0 6.0 0.00 0.00 0.00 77 1011.9
20260505201102 55 155 0.0 4.0 0.00 0.00 0.00 76 1011.8
20260505200845 55 63 1.0 5.0 0.00 0.00 0.00 76 1011.8
20260505200344 55 46 1.0 5.0 0.00 0.00 0.00 75 1011.7
20260505195602 55 0 1.0 4.0 0.00 0.00 0.00 75 1011.7
20260505195341 55 20 1.0 4.0 0.00 0.00 0.00 75 1011.6
20260505194604 55 50 0.0 4.0 0.00 0.00 0.00 74 1011.6
20260505194102 55 64 1.0 4.0 0.00 0.00 0.00 74 1011.5
20260505193605 55 304 1.0 4.0 0.00 0.00 0.00 73 1011.4
20260505193103 56 29 1.0 5.0 0.00 0.00 0.00 73 1011.3
20260505192603 56 72 1.0 8.0 0.00 0.00 0.00 73 1011.2
20260505192102 56 306 2.0 8.0 0.00 0.00 0.00 72 1011.2
20260505191602 56 329 1.0 5.0 0.00 0.00 0.00 72 1011.0
20260505191104 56 42 1.0 5.0 0.00 0.00 0.00 71 1010.9
20260505190604 56 355 1.0 3.0 0.00 0.00 0.00 70 1010.9
20260505185604 56 5 1.0 8.0 0.00 0.00 0.00 69 1010.9
20260505185104 56 300 1.0 4.0 0.00 0.00 0.00 69 1010.9
20260505184603 56 205 1.0 4.0 0.00 0.00 0.00 69 1010.8
20260505184104 56 186 1.0 3.0 0.00 0.00 0.00 69 1010.8
20260505183602 57 249 1.0 3.0 0.00 0.00 0.00 69 1010.8
20260505183102 57 212 1.0 3.0 0.00 0.00 0.00 68 1010.8
20260505182840 57 221 1.0 3.0 0.00 0.00 0.00 68 1010.8
20260505182106 57 279 1.0 3.0 0.00 0.00 0.00 68 1010.8
20260505181842 57 286 1.0 5.0 0.00 0.00 0.00 68 1010.7
20260505181103 58 5 1.0 5.0 0.00 0.00 0.00 67 1010.7
20260505180557 58 15 1.0 5.0 0.00 0.00 0.00 67 1010.8
20260505180051 58 310 1.0 4.0 0.00 0.00 0.00 68 1010.6
20260505175554 58 355 1.0 3.0 0.00 0.00 0.00 68 1010.7
20260505175049 59 257 1.0 3.0 0.00 0.00 0.00 68 1010.7
20260505174550 59 246 1.0 5.0 0.00 0.00 0.00 68 1010.7
20260505174048 59 30 1.0 6.0 0.00 0.00 0.00 67 1010.7
20260505173549 60 203 1.0 6.0 0.00 0.00 0.00 67 1010.6
20260505173048 60 346 0.0 3.0 0.00 0.00 0.00 66 1010.7
20260505172550 60 256 0.0 2.0 0.00 0.00 0.00 63 1010.6
20260505172049 60 254 0.0 2.0 0.00 0.00 0.00 63 1010.6
20260505171550 60 302 0.0 2.0 0.00 0.00 0.00 62 1010.6
20260505171049 60 234 0.0 2.0 0.00 0.00 0.00 62 1010.6
20260505170549 60 81 0.0 2.0 0.00 0.00 0.00 62 1010.6
20260505170050 60 80 0.0 2.0 0.00 0.00 0.00 62 1010.6
20260505165544 60 264 0.0 2.0 0.00 0.00 0.00 61 1010.7
20260505165045 61 257 0.0 1.0 0.00 0.00 0.00 61 1010.7
20260505164543 61 260 0.0 1.0 0.00 0.00 0.00 60 1010.6
20260505164047 61 259 0.0 2.0 0.00 0.00 0.00 60 1010.6
20260505163545 61 165 0.0 2.0 0.00 0.00 0.00 60 1010.7
20260505163323 61 240 0.0 2.0 0.00 0.00 0.00 59 1010.7
20260505162542 61 263 0.0 2.0 0.00 0.00 0.00 58 1010.7
20260505162324 62 216 0.0 2.0 0.00 0.00 0.00 57 1010.6
20260505161544 62 57 0.0 2.0 0.00 0.00 0.00 58 1010.6
20260505161043 62 69 0.0 2.0 0.00 0.00 0.00 58 1010.6
20260505160543 62 248 0.0 2.0 0.00 0.00 0.00 57 1010.6
20260505153043 63 14 0.0 3.0 0.00 0.00 0.00 55 1010.7
20260505152542 63 333 0.0 2.0 0.00 0.00 0.00 54 1010.7
20260505152042 63 296 0.0 3.0 0.00 0.00 0.00 53 1010.7
20260505151543 63 302 0.0 3.0 0.00 0.00 0.00 53 1010.7
20260505151042 63 175 0.0 2.0 0.00 0.00 0.00 53 1010.7
20260505150544 63 164 0.0 4.0 0.00 0.00 0.00 52 1010.8
20260505150323 64 285 1.0 4.0 0.00 0.00 0.00 51 1010.8
20260505125030 64 52 1.0 6.0 0.00 0.00 0.00 54 1011.3
20260505124524 64 245 1.0 4.0 0.00 0.00 0.00 53 1011.3
20260505124018 64 317 1.0 4.0 0.00 0.00 0.00 52 1011.4
20260505123512 63 36 1.0 3.0 0.00 0.00 0.00 54 1011.3
20260505123015 63 248 1.0 4.0 0.00 0.00 0.00 56 1011.4
20260505122509 63 197 1.0 4.0 0.00 0.00 0.00 55 1011.4
20260505122009 63 279 1.0 3.0 0.00 0.00 0.00 57 1011.4
20260505121510 63 226 0.0 3.0 0.00 0.00 0.00 58 1011.5
20260505121252 62 211 1.0 4.0 0.00 0.00 0.00 59 1011.4
20260505120505 62 211 1.0 4.0 0.00 0.00 0.00 58 1011.5
20260505120005 62 319 1.0 3.0 0.00 0.00 0.00 59 1011.5
20260505115504 62 217 1.0 3.0 0.00 0.00 0.00 59 1011.5
20260505115005 62 45 1.0 3.0 0.00 0.00 0.00 60 1011.6
20260505114504 62 245 1.0 5.0 0.00 0.00 0.00 62 1011.5
20260505114002 62 5 1.0 5.0 0.00 0.00 0.00 61 1011.6
20260505113503 61 223 1.0 3.0 0.00 0.00 0.00 63 1011.6
20260505113005 61 292 1.0 4.0 0.00 0.00 0.00 62 1011.6
20260505112745 61 13 1.0 4.0 0.00 0.00 0.00 63 1011.7
20260505112003 61 241 1.0 3.0 0.00 0.00 0.00 64 1011.7
20260505111505 61 61 1.0 3.0 0.00 0.00 0.00 63 1011.8
20260505111003 61 0 1.0 4.0 0.00 0.00 0.00 63 1011.8
20260505110505 61 213 1.0 6.0 0.00 0.00 0.00 63 1011.8
20260505101742 60 84 1.0 4.0 0.00 0.00 0.00 67 1012.0
20260505101002 59 145 1.0 3.0 0.00 0.00 0.00 68 1012.1
20260505100745 59 257 1.0 3.0 0.00 0.00 0.00 69 1012.2
20260505100004 58 11 1.0 3.0 0.00 0.00 0.00 70 1012.1
20260505095502 58 207 1.0 3.0 0.00 0.00 0.00 70 1012.2
20260505095005 58 261 1.0 4.0 0.00 0.00 0.00 70 1012.3
20260505094505 58 36 1.0 4.0 0.00 0.00 0.00 70 1012.3
20260505094004 58 14 1.0 3.0 0.00 0.00 0.00 70 1012.3
20260505093505 58 217 1.0 2.0 0.00 0.00 0.00 70 1012.3
20260505093005 58 235 0.0 2.0 0.00 0.00 0.00 71 1012.4
20260505092504 58 47 1.0 3.0 0.00 0.00 0.00 72 1012.4
20260505092002 58 236 1.0 4.0 0.00 0.00 0.00 71 1012.3
20260505091503 58 333 1.0 4.0 0.00 0.00 0.00 71 1012.4
20260505091002 58 230 1.0 2.0 0.00 0.00 0.00 72 1012.4
20260505090501 58 61 1.0 5.0 0.00 0.00 0.00 74 1012.4
20260505090000 57 150 1.0 5.0 0.00 0.00 0.00 75 1012.4
20260505085742 56 9 0.0 4.0 0.00 0.00 0.00 76 1012.4
20260505085000 56 208 0.0 2.0 0.00 0.00 0.00 77 1012.4